Theta_e
293 292 292 292 292 292 292 293 294 296 296 294 292 291 292 293 293 293 295 294 293 292 292 291 291 290 291 295 296 297 297 297 297 297 297 296 296 295 295 295 295 296 296 296 296 295 295 295 295 296 296 296 296 296 296 296 296 296 295 295 295 295 295 296 296 296 297 297 297 297 297 297 297 297 297 297 297 297 297 297 297 297 297 298 298 299
291 291 291 291 291 292 292 292 294 295 295 293 292 291 291 290 291 292 293 294 293 292 291 290 290 289 288 291 294 296 296 296 296 296 296 295 295 295 295 295 295 295 295 295 295 295 295 295 295 295 295 295 295 295 295 295 295 295 295 295 295 294 294 295 295 295 296 296 296 296 296 296 296 296 296 296 296 296 296 296 297 297 297 298 298 299
291 291 291 291 292 292 293 292 293 293 294 293 292 291 290 290 290 291 291 292 292 292 290 289 289 288 287 289 292 295 295 295 295 295 295 295 295 294 294 294 295 295 295 295 295 295 295 295 295 295 294 294 294 294 294 294 294 294 294 294 294 294 294 294 294 294 294 294 295 295 295 295 296 296 296 296 296 296 296 296 297 297 297 298 298 299
292 291 291 291 292 292 293 293 292 291 292 292 291 291 290 290 291 291 291 291 290 290 290 288 288 287 286 287 290 293 294 294 294 294 294 294 294 294 294 294 294 294 295 295 295 295 294 294 294 294 294 294 294 294 294 294 294 293 293 293 293 293 293 293 293 293 293 293 294 294 294 295 295 295 295 295 295 296 296 296 297 297 298 298 298 299
293 292 291 291 291 292 292 291 291 291 291 291 291 291 290 290 291 291 291 290 290 289 289 288 287 286 285 285 288 291 293 294 294 294 294 294 294 294 294 294 294 294 294 294 294 294 294 294 294 293 293 293 293 293 293 293 293 293 293 293 292 292 292 292 292 292 292 293 293 293 294 294 294 294 295 295 295 295 296 296 297 297 298 298 298 299
293 291 291 291 291 291 290 290 291 291 291 290 291 291 291 290 290 290 290 290 289 289 288 288 286 285 285 285 288 292 293 293 293 293 293 293 293 293 293 294 294 294 294 294 294 294 294 293 293 293 293 293 293 293 293 292 292 292 292 292 292 292 291 292 292 292 292 293 293 293 294 294 294 294 295 295 295 295 296 296 297 297 298 298 298 298
291 290 290 290 290 290 289 290 290 291 290 290 290 290 290 290 290 289 289 289 289 289 288 288 286 285 285 286 289 291 291 292 292 292 292 292 292 292 293 293 293 293 293 293 293 293 293 293 293 293 293 293 292 292 292 292 292 292 291 291 291 291 291 291 292 292 292 293 293 293 294 294 294 294 294 295 295 295 295 296 296 297 297 297 297 298
289 289 289 289 289 289 289 290 290 290 290 290 290 290 289 289 289 289 289 289 288 288 288 288 287 286 285 285 287 288 288 288 288 289 290 290 291 291 292 292 292 292 292 293 293 293 293 293 293 292 292 292 292 292 292 292 291 291 291 291 291 291 291 292 292 292 293 293 293 293 293 294 294 294 294 294 294 295 295 295 296 296 296 297 297 297
290 290 289 289 289 289 289 289 289 289 289 290 289 289 288 288 288 288 288 288 288 287 287 287 286 285 284 283 284 285 287 287 286 286 287 287 288 289 291 291 292 292 292 292 292 292 292 292 292 292 292 292 292 291 291 291 291 290 290 290 290 291 291 291 292 292 292 293 293 293 293 293 293 294 294 294 294 294 294 295 295 295 295 296 296 296
291 290 290 290 290 290 291 290 289 288 289 289 288 288 287 287 287 286 286 286 286 286 286 286 285 284 284 283 283 284 286 288 289 289 289 288 288 289 290 290 290 290 291 291 291 291 291 291 291 291 291 291 291 291 291 290 290 290 290 290 290 291 291 291 292 292 292 292 293 293 293 293 293 293 293 293 293 294 294 293 293 294 294 294 295 295
290 290 289 289 289 290 291 289 288 288 288 288 288 288 287 287 286 285 284 284 284 285 285 285 284 284 283 283 283 284 285 285 286 287 288 288 289 289 289 289 289 289 290 290 290 290 290 290 290 290 290 290 290 290 290 290 290 290 290 290 290 291 291 291 291 292 292 292 292 292 292 293 293 293 293 293 293 293 293 293 293 293 293 294 294 294
289 289 288 288 289 289 290 288 288 287 288 287 287 287 287 286 286 285 284 283 284 284 284 284 284 283 283 283 284 284 284 283 283 283 284 285 286 287 287 286 287 288 288 289 289 289 289 289 289 289 289 289 289 289 289 289 289 289 290 290 290 291 291 291 291 291 291 292 292 292 292 292 292 292 292 292 292 292 292 292 292 292 293 293 293 294
289 289 288 289 289 289 289 288 287 287 287 286 286 286 286 286 285 285 284 283 284 284 283 283 283 283 283 284 285 284 283 283 282 282 283 282 283 283 283 283 283 283 284 284 284 285 288 288 289 289 289 288 289 289 289 289 289 290 290 290 290 290 290 290 291 291 291 291 291 291 291 291 291 291 292 292 292 292 292 292 292 292 292 293 293 293
289 288 289 289 289 289 289 288 287 287 287 287 287 287 286 285 285 284 283 284 284 284 283 283 282 283 283 284 285 284 283 282 282 282 282 282 282 282 282 282 282 282 282 281 281 282 287 287 286 286 288 288 288 289 289 289 289 289 290 290 290 290 290 290 290 290 290 290 290 290 291 291 291 291 291 291 292 292 292 292 292 292 292 292 292 292
289 289 289 289 289 289 289 289 288 288 287 287 286 286 285 285 285 284 283 284 283 283 282 282 282 282 283 284 284 284 283 283 282 281 281 281 281 281 281 281 282 282 281 281 281 282 285 284 283 282 283 285 286 288 289 289 289 290 290 290 290 290 290 290 290 290 290 290 290 290 290 290 291 291 291 291 291 291 291 291 291 291 292 292 292 292
290 290 290 290 290 290 289 289 288 287 286 286 285 285 284 284 284 284 283 282 282 281 281 281 281 282 282 283 283 283 283 283 282 281 281 281 281 281 281 281 281 281 281 281 281 281 281 281 280 280 281 284 287 288 289 289 289 289 289 289 289 289 289 289 289 289 289 289 289 289 290 290 290 290 291 291 291 291 291 291 291 291 291 291 291 292
292 292 292 291 290 289 288 288 288 287 286 285 284 284 284 284 283 283 282 282 281 281 281 281 280 280 280 281 282 283 283 282 281 281 280 280 280 281 281 281 281 281 281 281 280 280 280 280 280 280 282 286 288 289 289 289 289 289 289 289 289 289 289 289 289 289 289 289 289 289 289 290 290 290 290 290 290 290 290 290 291 291 291 291 291 292
292 292 291 289 288 287 287 287 286 286 285 284 284 284 284 284 283 282 282 281 281 281 281 280 280 279 279 280 281 282 282 281 280 280 280 280 280 281 281 281 281 280 280 280 280 279 279 278 278 280 283 287 288 288 289 289 289 289 289 289 289 289 289 289 289 288 288 288 289 289 289 289 290 290 290 290 290 290 290 290 290 290 291 291 291 292
291 290 289 288 287 287 286 286 285 285 284 284 284 284 284 284 283 282 282 282 282 281 280 280 280 280 280 280 281 281 281 281 280 279 279 279 279 280 280 280 281 280 279 280 280 279 278 278 281 285 288 288 288 289 289 289 289 289 289 289 289 289 289 289 288 288 288 288 288 288 289 289 289 289 289 289 289 289 290 290 290 290 291 291 292 292
290 289 288 287 287 286 286 286 286 286 285 285 285 284 284 283 283 283 283 282 282 281 281 280 280 280 280 280 281 281 281 280 279 279 278 278 279 279 279 280 280 279 278 278 278 278 277 277 279 282 287 287 288 288 289 289 289 289 289 289 289 289 288 288 288 288 288 288 288 288 289 289 289 289 289 289 289 289 289 290 290 291 291 292 292 292
288 287 288 288 287 286 285 285 286 287 287 286 285 284 283 283 283 283 283 282 281 281 281 280 280 280 280 280 280 280 280 280 279 278 277 277 278 278 279 279 278 278 278 278 278 278 278 277 277 280 285 287 288 288 289 289 289 289 289 289 288 288 288 288 287 287 287 287 288 288 288 288 288 289 289 289 289 289 289 290 290 291 291 291 291 291
288 287 287 288 287 287 286 286 287 288 288 286 285 284 284 283 282 282 281 281 280 280 280 280 280 280 280 280 280 280 280 279 279 278 277 277 277 277 279 279 278 277 277 277 277 277 278 278 278 280 285 287 288 288 289 288 288 289 288 288 288 288 287 287 287 287 287 287 288 288 288 288 288 288 288 289 289 289 289 290 290 291 291 291 290 289
287 287 287 287 287 287 287 286 287 287 287 286 286 285 284 283 282 281 281 281 280 280 280 280 280 280 280 280 280 281 281 280 279 278 277 276 276 277 278 278 278 278 277 277 277 278 278 278 279 281 285 287 288 288 288 288 288 288 288 288 288 287 287 287 287 287 287 287 287 288 288 288 288 288 288 288 289 289 289 290 290 290 290 289 289 288
287 287 287 287 287 287 287 286 286 286 286 286 285 284 284 283 283 282 282 281 281 280 280 279 279 279 279 280 280 280 280 280 279 278 277 276 276 277 278 278 278 278 278 278 278 278 278 279 279 280 282 285 287 288 288 288 288 288 288 287 287 287 287 287 287 287 287 287 287 287 287 287 288 288 288 288 288 289 289 290 290 290 289 288 288 288
287 287 287 287 288 288 287 287 287 287 286 285 284 284 284 284 284 283 282 281 280 280 279 278 278 278 278 280 280 280 279 279 278 278 276 276 276 276 277 277 277 277 277 277 278 278 278 279 279 279 279 282 285 287 287 287 287 287 287 287 287 287 286 287 286 286 287 287 287 287 287 287 287 288 288 288 288 289 289 289 289 289 288 288 287 287
289 289 289 290 290 291 290 290 290 289 287 286 284 284 283 283 282 281 281 280 280 279 278 277 277 277 278 278 279 279 279 278 278 277 276 275 275 275 276 276 276 276 277 277 278 278 279 278 278 277 277 279 282 285 286 286 286 286 286 286 286 286 286 286 286 286 286 287 287 287 287 287 287 287 288 288 288 288 289 289 289 288 287 287 287 287
292 293 293 293 292 292 292 291 291 290 289 287 286 284 283 282 281 280 279 279 279 278 277 276 276 277 278 278 278 278 279 279 278 277 276 275 274 274 275 276 276 276 277 277 278 279 280 279 278 278 278 278 280 283 285 285 286 286 286 286 286 286 286 286 286 286 286 286 286 286 287 287 287 287 287 288 288 288 288 289 288 287 287 286 285 285
294 293 293 293 293 292 292 291 291 290 289 288 287 285 283 281 279 279 278 278 278 278 277 276 276 276 277 277 278 278 279 279 278 276 276 275 274 274 275 276 276 276 276 276 278 279 281 280 278 277 277 279 279 280 283 284 285 285 285 285 285 285 285 286 286 286 286 286 286 286 286 286 287 287 287 288 288 288 288 288 288 287 286 285 284 283
292 292 292 292 292 291 291 290 290 290 289 288 286 285 283 281 279 278 278 278 278 277 277 277 277 277 277 277 277 278 278 278 277 277 276 275 274 274 275 276 276 276 275 275 276 276 276 277 277 276 277 279 279 279 280 282 283 283 283 284 284 285 285 285 285 285 285 285 286 286 286 286 286 287 287 287 287 288 288 288 287 286 285 283 282 282
286 286 286 287 287 287 287 286 287 288 288 287 285 284 283 281 279 279 279 278 278 277 277 277 277 277 276 276 276 277 277 276 277 277 276 274 273 274 275 275 275 275 275 274 273 273 273 275 276 276 277 278 278 278 277 278 279 280 280 281 283 283 284 285 285 285 285 285 285 285 286 286 286 286 286 287 287 288 288 288 287 285 283 282 281 281
281 281 281 281 282 282 282 283 283 284 285 285 284 283 282 280 279 279 279 278 277 277 276 276 276 276 276 275 275 275 275 275 277 278 276 274 273 273 274 273 274 274 274 273 272 271 272 273 275 276 277 277 277 277 277 278 278 277 278 278 280 281 284 284 284 284 285 285 285 285 285 285 286 286 286 287 287 287 288 288 287 286 283 281 280 280
280 280 280 280 280 280 281 281 281 281 281 282 282 282 282 281 280 279 279 278 278 277 276 276 276 276 276 275 275 274 275 275 277 279 277 274 273 273 273 272 272 273 274 273 272 271 271 272 274 275 275 275 275 276 277 278 278 277 278 277 278 279 283 284 284 284 284 284 285 285 285 285 285 285 286 286 286 287 287 287 287 286 283 281 280 280
280 280 280 280 280 280 280 280 280 280 280 280 280 280 281 281 281 280 279 278 278 277 276 276 275 275 275 274 274 274 274 275 278 280 277 274 272 272 272 272 271 272 273 273 273 273 272 273 274 274 274 274 275 275 276 278 278 278 277 277 277 278 281 282 282 282 283 283 283 284 285 285 285 285 285 286 286 286 287 287 287 286 285 283 281 280
281 280 280 280 280 280 279 279 279 279 279 279 280 280 280 279 279 280 280 279 278 277 276 276 275 274 274 273 273 273 273 275 278 280 278 273 272 272 271 272 272 272 272 273 273 273 273 274 274 274 274 274 275 275 275 276 277 278 276 277 277 278 280 280 280 281 281 281 281 281 282 283 284 285 285 285 286 286 286 286 286 286 286 285 283 281
281 280 280 280 279 279 279 279 279 279 279 279 279 279 279 278 278 278 279 278 278 277 276 276 275 274 273 272 272 272 273 273 276 279 278 274 272 272 272 272 273 273 273 273 273 273 273 273 274 274 274 274 274 274 275 275 276 276 276 278 278 279 278 278 279 279 279 279 279 279 280 281 282 283 284 284 285 285 286 286 286 286 286 286 285 284
280 280 280 279 279 279 279 279 279 279 279 279 278 278 278 278 278 277 277 277 277 277 277 276 275 275 273 273 272 272 272 273 275 277 278 275 273 272 273 273 274 274 273 273 273 273 273 273 274 274 274 274 273 274 274 275 275 276 276 278 278 278 278 278 278 278 277 278 278 279 280 281 281 282 283 284 285 285 285 285 285 286 286 286 286 286
279 279 279 279 279 279 279 279 279 279 278 278 278 278 278 277 277 277 276 276 276 276 277 277 276 276 276 274 273 272 272 273 274 275 277 275 274 274 273 273 274 275 274 273 273 273 273 273 273 273 273 273 273 274 274 275 276 275 276 277 277 278 278 278 279 279 277 278 279 280 281 281 282 282 283 284 284 284 284 285 285 285 285 285 285 286
279 279 279 279 279 278 278 278 278 278 278 277 277 277 277 277 276 276 276 275 274 274 274 274 274 275 277 277 275 273 272 272 272 273 274 273 273 273 273 273 274 275 275 274 273 273 273 272 272 272 272 272 273 274 275 275 275 275 276 277 277 277 277 278 278 279 278 279 280 281 282 282 282 282 282 282 282 281 281 281 283 284 284 284 285 285
279 279 279 279 279 278 278 277 277 277 277 277 277 277 277 276 276 276 276 275 274 274 273 273 273 273 273 274 276 277 276 274 273 273 273 272 271 272 273 272 273 274 274 274 274 273 273 272 272 272 272 272 273 274 274 274 274 275 276 277 276 276 277 278 279 279 279 279 280 281 282 281 281 281 281 280 280 279 279 279 281 282 281 280 281 283
279 279 279 279 279 278 277 278 277 277 277 277 278 278 277 277 276 276 276 276 276 275 273 273 273 274 274 275 277 277 277 275 275 275 272 271 270 271 272 272 273 274 275 274 274 273 272 272 273 273 274 273 274 274 275 274 274 276 278 277 276 276 278 279 279 279 279 278 279 280 281 281 281 281 281 280 279 279 279 278 279 281 281 278 277 278
279 279 278 278 278 278 278 278 277 277 277 277 276 276 276 276 276 276 276 276 276 276 275 275 274 274 273 273 273 274 275 275 276 275 272 271 271 271 272 273 274 275 275 274 274 274 273 273 273 274 274 274 274 275 275 274 276 278 279 277 277 277 279 280 280 279 278 278 279 280 282 282 281 281 280 280 280 280 280 280 280 280 280 278 277 278
279 278 277 277 277 277 277 277 278 278 277 276 276 276 276 276 275 275 274 274 274 274 274 274 273 273 272 272 272 273 273 274 275 276 273 272 271 271 272 274 275 275 275 274 274 274 275 275 275 274 274 274 275 275 274 274 276 278 278 277 278 279 280 280 280 279 277 277 278 279 282 281 280 280 280 280 279 279 281 281 281 282 281 279 278 278
278 277 277 276 276 277 278 278 278 278 277 276 276 276 275 275 275 275 275 273 273 274 275 274 273 273 272 273 274 274 273 272 273 275 275 272 271 272 273 274 276 276 276 275 274 274 275 276 276 276 276 275 275 275 275 275 276 276 277 278 279 278 277 277 277 278 278 278 279 280 281 280 280 280 280 280 280 280 280 281 282 283 283 280 278 279
277 277 276 276 277 277 278 278 277 277 277 276 276 276 275 275 275 275 275 273 273 274 274 273 272 272 273 275 275 274 277 276 276 275 276 276 275 274 275 275 276 277 276 276 275 275 274 275 275 275 276 276 276 276 276 275 275 275 276 279 279 279 278 278 278 278 278 279 279 280 280 280 280 279 280 279 279 279 279 279 279 280 282 280 279 279
277 277 277 277 277 277 277 277 277 277 276 276 276 275 275 275 275 275 274 273 273 273 273 273 273 272 272 273 274 276 278 278 278 278 278 281 282 281 278 277 277 277 277 277 277 276 276 275 274 274 275 276 276 276 276 276 276 277 279 280 280 280 280 280 280 279 280 279 279 280 280 280 279 278 278 278 278 279 279 279 279 279 280 279 279 279
277 277 277 277 277 277 278 277 277 276 276 276 276 275 275 274 274 274 275 273 273 272 272 273 273 274 275 275 275 276 277 277 278 279 279 280 280 281 281 280 279 279 278 278 278 278 278 276 275 274 274 274 275 275 277 277 277 277 278 280 280 280 280 280 280 280 280 280 280 280 280 279 278 277 276 277 278 279 279 279 279 279 279 279 278 279
277 276 276 276 276 276 277 277 276 276 276 276 276 275 275 274 274 274 274 273 273 273 274 275 274 274 274 275 275 276 276 276 277 278 278 279 279 279 280 281 281 282 281 281 280 280 279 278 276 275 274 273 273 273 275 277 278 278 278 279 279 280 279 280 280 281 281 281 280 280 279 278 276 275 275 277 278 278 279 280 280 280 280 279 278 279
277 277 276 276 276 276 276 276 276 275 275 275 275 276 275 275 275 274 272 272 273 274 276 275 274 273 272 275 276 277 277 277 277 277 278 278 279 279 280 280 280 281 282 282 282 281 279 278 277 276 275 274 273 272 274 276 278 279 279 279 280 280 279 280 281 281 281 281 280 279 279 278 277 276 275 276 277 278 279 280 280 281 280 280 278 279
277 277 277 276 276 276 275 275 275 275 275 275 275 275 275 276 278 277 274 272 273 274 274 275 275 274 274 275 277 278 278 278 277 277 277 278 278 279 279 279 280 280 279 279 278 277 278 278 278 278 278 277 275 274 275 276 278 279 280 280 280 280 279 280 281 281 281 280 280 279 278 279 279 278 277 276 276 278 278 279 280 280 281 280 280 280
277 277 277 276 276 275 275 275 275 275 275 275 275 274 273 274 275 275 276 275 276 276 275 275 275 275 276 276 277 277 278 277 276 276 277 278 278 279 279 279 279 279 277 277 276 276 275 276 278 280 282 282 280 278 276 276 277 278 280 280 280 280 280 280 281 281 281 280 280 279 278 279 279 279 278 276 276 277 278 279 280 280 281 281 282 282
277 276 276 276 275 275 275 275 275 276 275 275 275 274 273 273 274 276 277 277 277 276 276 276 276 276 277 277 277 277 277 276 276 276 277 278 279 279 279 279 279 278 277 276 276 276 276 276 277 278 281 284 285 283 280 279 278 279 280 280 280 280 280 280 280 281 282 281 280 279 279 279 279 279 278 277 276 276 277 278 279 280 281 281 282 283
Wind_Speed
1 1 2 3 3 2 2 2 3 4 4 3 3 2 3 3 3 2 2 2 1 1 1 1 2 3 4 5 7 8 8 9 9 9 9 10 10 11 12 13 13 13 13 13 13 14 14 14 15 15 15 15 15 15 15 15 15 15 15 15 16 16 16 17 17 17 18 18 18 19 19 19 19 19 19 19 19 19 19 19 19 19 19 19 20 20
1 1 1 2 3 2 1 2 2 3 4 4 3 3 3 2 2 1 1 0 1 1 2 2 2 2 2 3 5 7 8 9 9 9 9 9 10 11 12 12 13 13 13 13 13 14 14 14 14 15 15 15 15 15 15 15 15 15 15 15 16 16 16 17 17 17 18 18 18 19 19 19 19 19 18 18 18 18 18 18 19 19 19 20 20 20
1 1 1 1 2 2 1 1 2 3 3 4 4 3 3 3 2 1 1 1 1 2 2 2 2 1 1 2 4 7 8 9 9 9 8 9 10 11 12 12 12 12 13 13 13 14 14 14 14 15 15 15 15 15 14 14 14 15 15 15 16 16 16 17 17 17 17 18 18 18 18 18 18 18 18 18 18 18 18 19 19 19 20 20 20 20
2 2 1 1 1 1 1 2 2 3 3 4 4 3 3 2 2 1 1 1 1 1 1 1 1 0 0 1 3 6 8 9 9 8 8 9 10 10 11 12 12 12 13 13 13 13 13 14 14 14 14 14 14 14 14 14 14 14 15 15 16 16 16 16 17 17 17 17 17 17 17 17 18 18 18 18 18 18 19 19 19 20 20 20 20 21
2 2 2 1 1 1 2 2 3 3 3 3 3 3 3 2 1 0 0 0 0 0 1 0 0 0 0 1 3 5 8 9 9 8 8 8 9 10 11 11 12 12 12 13 13 13 13 13 14 14 14 14 14 14 14 14 14 14 15 15 15 16 16 16 16 16 16 17 17 17 17 17 17 17 18 18 18 19 19 19 20 20 20 20 21 21
2 1 1 1 1 1 2 2 3 3 3 3 2 2 2 1 1 1 0 0 0 0 1 0 0 0 1 2 4 6 8 8 8 7 7 8 9 10 11 11 12 12 12 12 12 12 13 13 13 13 13 13 13 13 13 13 14 14 14 15 15 15 16 16 16 16 16 16 17 17 17 17 17 18 18 18 19 19 19 20 20 20 20 21 21 21
1 1 1 1 1 1 2 2 2 2 2 2 1 1 1 1 1 1 1 1 1 1 0 1 1 1 1 2 4 6 6 6 6 6 6 7 9 10 11 11 12 12 12 12 12 12 12 13 13 13 13 13 13 13 13 13 13 14 14 14 15 15 15 16 16 16 16 17 17 17 17 17 18 18 18 19 19 19 20 20 20 20 21 21 21 21
2 1 1 1 1 2 2 2 2 2 1 1 1 1 1 1 1 1 1 1 1 1 0 1 1 1 2 2 3 3 3 3 3 3 4 6 7 9 10 11 12 12 12 12 12 12 12 12 13 13 13 13 12 12 12 13 13 13 14 14 14 15 15 16 16 16 17 17 17 17 18 18 18 18 19 19 19 19 20 20 20 20 20 21 21 21
3 2 2 2 2 2 1 1 1 1 1 1 1 1 1 1 1 0 0 0 0 0 1 0 1 2 2 2 1 1 1 1 1 1 3 4 5 7 9 10 11 11 12 11 11 11 12 12 12 12 12 12 12 12 12 12 12 13 13 14 14 15 16 16 16 17 17 17 18 18 18 18 18 19 19 19 19 19 19 20 20 20 20 20 20 20
3 3 2 2 1 2 2 2 1 1 1 1 1 1 1 1 1 1 1 1 1 1 0 1 1 1 2 1 1 1 1 2 3 4 5 6 7 8 9 9 10 10 11 11 11 11 11 12 12 12 12 12 12 11 11 12 12 12 13 14 15 15 16 16 17 17 18 18 18 18 18 19 19 19 19 19 19 19 19 19 19 19 20 20 20 20
3 2 2 2 1 1 2 2 2 1 1 2 2 1 1 1 2 2 1 1 1 1 1 0 1 1 1 1 1 1 1 2 3 4 6 7 8 9 9 9 9 10 11 10 10 10 11 11 12 12 12 12 11 11 11 11 12 12 13 14 14 15 16 16 17 17 18 18 18 19 19 19 19 19 19 19 19 19 19 19 19 19 19 19 19 19
2 2 2 1 1 2 2 2 2 2 2 2 1 1 0 1 1 2 2 0 1 1 1 1 1 1 1 1 1 0 1 1 2 2 3 4 5 5 6 6 7 8 8 8 8 9 10 11 11 12 11 11 11 11 11 11 11 12 13 14 14 15 16 16 17 18 18 18 19 19 19 19 19 19 19 19 19 19 18 18 18 18 18 18 18 18
2 2 2 2 2 2 2 2 2 1 1 1 1 1 1 1 1 2 2 1 1 1 1 1 1 1 1 1 1 1 1 1 1 1 2 2 2 2 3 3 3 4 4 4 4 5 8 9 10 10 11 11 11 11 11 11 11 12 13 13 14 15 16 17 17 18 18 18 18 18 18 18 18 18 18 18 18 18 18 18 17 18 18 17 17 17
2 2 2 2 2 2 2 2 2 2 1 2 2 2 2 1 1 2 1 1 1 1 0 0 1 2 1 1 1 1 2 1 1 1 2 2 2 2 2 2 3 2 2 2 2 3 5 6 6 7 9 9 9 10 10 11 11 12 12 13 14 15 16 16 17 17 18 18 18 18 18 18 18 18 18 18 17 17 17 17 17 17 17 17 17 17
3 3 3 3 2 2 2 2 2 2 2 2 2 2 2 2 2 2 2 1 0 0 1 1 1 2 1 1 2 2 2 1 1 2 2 2 2 2 2 2 2 2 1 1 2 3 4 4 3 3 5 6 7 8 10 11 11 12 12 12 13 14 15 16 16 17 17 17 18 18 18 18 18 18 17 17 17 17 17 17 17 17 17 17 17 16
3 3 3 3 3 3 2 2 2 2 2 2 2 2 2 2 2 2 2 1 1 1 1 1 1 1 1 1 2 2 2 2 2 2 3 3 3 2 1 2 2 2 2 1 2 2 3 2 2 2 3 6 9 11 13 12 12 12 12 12 13 14 15 15 16 16 17 17 17 17 17 17 17 17 17 17 17 16 16 16 16 17 16 16 16 16
3 3 3 3 3 3 2 2 3 3 3 2 2 2 2 2 2 2 2 2 1 1 1 1 1 1 1 1 1 1 2 2 2 2 3 3 3 2 1 2 2 2 2 2 2 2 2 2 2 2 3 8 11 13 14 13 12 11 11 12 13 14 15 15 16 16 16 17 17 17 17 17 17 17 17 16 16 16 16 16 16 16 16 16 16 16
3 3 3 3 3 3 3 3 3 2 3 2 2 2 1 2 2 2 2 2 2 1 1 1 1 0 1 1 1 1 2 2 2 2 2 3 3 2 1 1 2 2 2 2 2 2 2 2 2 3 5 11 13 14 14 12 11 11 11 12 13 14 14 14 15 15 16 16 16 16 16 16 16 16 16 16 16 16 16 16 16 16 16 16 16 16
3 3 3 4 3 3 3 3 3 3 3 3 3 2 2 2 2 2 2 2 2 2 2 1 1 1 1 2 1 0 2 2 2 2 2 3 3 2 2 2 2 2 2 2 2 2 2 2 3 6 10 13 14 14 13 12 11 10 11 12 13 13 14 14 14 15 15 16 16 16 16 16 16 16 16 16 16 16 16 16 16 16 16 15 15 15
4 3 3 4 4 4 3 3 3 3 4 4 3 3 3 2 2 2 2 2 2 2 2 1 1 1 1 2 2 1 2 2 2 1 2 2 2 2 2 2 2 3 3 3 3 2 2 2 3 6 10 12 13 13 12 11 10 10 11 12 13 13 13 14 14 14 15 15 15 15 15 15 15 15 15 15 15 15 15 16 16 16 16 15 15 15
5 4 3 4 5 4 3 3 3 4 4 4 4 3 3 2 2 2 2 2 2 2 2 1 1 1 1 2 2 2 1 2 1 1 1 1 2 2 2 2 2 3 3 3 3 3 2 2 3 4 8 11 12 12 11 10 10 11 12 13 13 13 13 13 14 14 14 15 15 15 15 15 15 15 15 15 15 15 15 16 16 16 16 15 15 15
5 4 4 4 4 4 4 3 4 4 4 4 4 3 3 2 2 2 2 2 2 2 1 1 1 2 2 3 3 2 0 1 1 0 1 1 2 2 2 2 3 3 3 3 3 3 3 3 4 5 8 11 11 11 10 11 11 12 13 13 13 13 13 13 13 14 14 14 14 15 15 15 15 15 15 15 15 15 15 16 16 16 16 16 16 16
5 5 4 4 4 4 4 4 4 4 4 3 3 3 2 2 2 2 2 2 2 2 1 1 2 2 2 3 3 2 1 1 2 2 1 1 2 2 2 3 3 3 3 3 3 3 4 4 4 5 7 10 11 11 12 12 13 14 14 14 14 13 13 13 13 13 13 14 14 14 14 15 15 15 15 15 15 15 16 16 16 16 16 16 15 15
6 5 5 5 4 4 4 4 4 4 4 4 3 3 3 3 3 3 2 2 2 2 1 1 1 2 2 3 2 1 0 1 2 2 1 0 1 2 2 3 3 3 3 3 3 4 4 4 4 4 5 9 11 13 14 14 14 14 14 14 14 13 13 13 13 13 13 13 14 14 14 14 14 15 15 15 15 16 16 16 16 16 16 15 15 15
6 6 5 5 6 6 6 5 5 5 4 4 4 4 4 4 4 4 3 2 2 2 1 0 1 1 2 1 0 1 1 2 2 2 2 1 1 2 2 3 3 3 4 3 4 4 4 4 4 3 4 8 12 15 15 15 15 15 14 14 14 14 14 14 14 13 13 13 13 14 14 14 14 14 15 15 15 16 16 16 16 15 15 15 14 14
9 9 9 10 11 12 11 10 10 9 8 6 4 3 3 4 4 3 2 2 2 1 1 1 1 1 2 1 1 1 1 2 2 2 2 1 1 2 3 2 3 3 4 4 4 4 4 3 3 3 4 6 10 14 15 16 15 15 14 14 14 14 14 14 14 14 14 14 14 14 14 14 14 14 15 15 15 16 16 15 15 15 14 14 13 13
15 15 16 16 16 15 14 13 13 12 11 9 7 5 4 3 3 3 2 2 1 1 1 1 0 1 1 1 1 0 1 2 2 2 2 2 1 1 2 2 3 3 4 4 4 4 4 3 3 3 4 4 6 10 14 15 15 15 15 15 15 15 15 15 15 15 14 14 14 14 14 14 14 14 15 15 16 16 16 15 14 14 13 12 11 11
18 18 17 16 16 15 15 14 13 12 11 10 9 7 4 3 3 3 2 2 2 2 2 1 1 0 1 1 1 1 2 2 1 1 1 2 1 1 2 2 3 3 3 3 4 4 4 2 3 3 4 5 6 7 10 13 13 14 14 15 15 15 15 15 15 15 15 15 15 15 14 14 14 15 15 15 16 16 16 15 14 12 11 9 7 6
17 17 16 16 15 14 13 12 12 11 11 10 9 7 4 3 2 3 3 2 2 2 1 1 1 0 0 1 1 1 2 2 1 1 1 2 1 1 2 2 3 3 3 3 3 3 3 2 2 3 4 6 6 6 6 9 10 10 12 14 14 14 14 14 15 15 15 15 15 15 15 15 15 15 15 16 16 16 16 15 13 10 7 6 5 4
12 12 12 12 12 11 10 9 8 9 10 9 8 7 4 3 2 2 2 2 2 2 1 1 0 0 0 1 1 1 2 2 2 2 2 2 2 2 2 3 3 3 3 3 2 2 2 2 2 3 4 5 5 5 4 5 5 6 7 9 11 12 13 14 14 14 14 15 15 15 15 15 15 15 16 16 16 16 16 15 12 8 4 4 4 4
7 8 7 7 7 7 6 5 5 6 7 7 7 6 4 3 3 2 2 2 2 2 1 1 1 1 1 1 1 1 1 1 2 2 3 2 1 1 2 3 3 3 3 2 2 2 2 2 3 3 4 4 4 4 4 4 4 4 4 5 6 8 11 13 13 13 13 14 14 15 15 15 15 16 16 16 16 16 16 15 12 7 3 3 3 4
6 6 5 5 4 4 4 4 3 3 4 5 5 4 4 4 3 3 2 2 2 2 1 1 1 1 1 1 1 1 1 1 3 4 3 2 1 1 2 2 3 3 3 2 2 1 2 2 3 3 3 4 4 4 4 4 4 4 4 4 4 5 9 10 11 11 11 12 13 14 14 15 15 15 16 16 16 16 16 16 13 9 4 3 3 3
6 5 4 4 4 3 3 3 2 2 3 3 3 3 4 4 3 3 3 2 2 2 2 2 1 1 1 1 1 1 1 1 3 5 5 3 2 1 2 2 2 3 3 2 2 1 1 2 3 3 3 3 3 3 3 4 4 4 4 4 3 4 7 7 7 7 8 9 10 10 12 13 14 14 15 15 16 16 16 16 14 11 7 4 3 3
6 5 5 4 3 3 3 2 2 2 3 3 3 3 3 3 3 3 3 3 3 3 2 2 2 2 2 2 1 1 1 2 4 6 6 3 2 1 2 2 2 2 2 2 2 2 1 2 3 3 3 3 3 3 3 4 4 4 4 4 3 3 4 4 5 5 5 6 5 6 7 8 10 12 13 14 14 15 15 16 15 14 12 8 5 3
6 5 4 4 3 3 3 3 3 3 3 3 3 3 3 3 3 3 3 3 3 2 2 2 2 2 3 2 2 1 0 1 3 5 5 3 2 1 1 2 2 2 2 2 2 2 2 2 3 4 3 3 3 3 3 3 3 4 4 4 4 3 3 3 3 4 4 4 4 4 4 4 6 8 10 12 13 14 15 15 15 15 15 13 10 6
5 5 4 3 3 3 3 3 3 3 3 3 3 3 3 3 2 2 2 3 2 2 2 2 2 3 3 3 3 2 1 1 1 3 4 3 2 1 1 1 2 2 2 2 2 2 2 2 3 4 4 4 3 3 3 3 3 4 4 4 4 3 3 3 3 3 3 4 4 4 4 4 5 6 7 11 13 14 14 15 15 15 15 15 14 11
5 4 3 3 3 3 3 3 3 3 3 2 2 2 2 2 2 2 2 2 2 2 2 2 2 2 2 3 3 2 2 1 1 2 2 1 1 1 0 1 2 2 1 1 2 2 2 3 3 3 3 3 3 3 3 4 4 4 4 4 3 3 3 4 4 3 3 4 4 4 5 5 5 6 7 10 11 11 12 13 13 14 14 14 14 14
5 4 3 2 2 2 2 2 2 2 2 2 2 2 2 2 2 2 2 2 2 2 2 1 1 0 0 1 2 2 2 2 1 1 1 1 1 1 1 1 1 2 1 1 1 1 2 2 3 3 3 3 3 4 4 4 4 4 4 4 3 3 3 4 4 3 3 3 5 5 6 5 5 5 5 6 6 6 6 7 8 10 11 11 13 14
5 4 3 3 2 2 2 2 2 2 2 2 2 2 2 1 1 1 1 2 2 2 2 2 1 1 1 2 2 3 3 2 2 2 2 2 2 2 1 1 1 2 1 1 1 1 1 1 2 2 3 3 4 4 4 3 4 4 4 4 3 3 3 4 4 3 3 3 4 5 5 4 4 4 4 4 4 4 4 4 5 6 6 6 7 10
5 4 3 3 3 2 2 3 3 3 2 2 2 2 1 1 1 1 1 1 2 2 2 2 2 2 2 2 3 4 4 3 3 3 3 3 2 2 2 2 2 2 2 1 1 0 0 1 2 2 3 3 4 4 4 3 4 5 6 4 3 3 4 4 4 3 3 3 4 4 4 4 4 4 4 4 4 4 4 3 3 4 4 3 4 5
5 4 3 3 3 3 3 3 3 3 2 2 1 1 1 1 1 1 1 1 1 1 1 1 1 0 1 1 2 3 4 4 4 4 3 3 4 3 3 3 2 2 1 1 1 1 1 1 2 2 3 3 4 4 5 4 5 6 7 5 4 4 5 4 4 3 3 3 3 4 5 5 5 5 4 4 4 4 4 3 3 3 3 2 2 3
5 4 3 3 3 2 2 3 3 3 2 2 1 1 1 1 1 1 1 2 1 1 1 2 2 2 2 2 2 2 3 3 4 5 4 4 5 4 4 3 3 2 1 1 2 2 2 2 3 3 3 3 3 3 4 4 5 5 5 4 4 5 5 4 4 3 3 3 3 4 5 4 4 4 4 4 4 4 4 4 4 5 4 2 2 2
4 4 3 3 3 3 3 4 3 3 2 2 1 1 1 1 1 1 2 2 2 2 2 2 2 2 1 2 2 2 2 3 4 5 5 5 5 5 5 4 4 3 2 1 2 2 3 3 3 3 3 3 3 3 4 5 5 5 4 5 5 4 3 3 3 3 3 3 3 3 3 3 3 3 4 4 4 3 3 4 5 6 5 3 2 2
4 4 3 3 3 3 3 3 2 2 2 2 2 1 1 1 2 2 2 2 2 2 2 2 2 2 2 2 2 2 1 1 3 4 5 6 7 6 6 5 5 4 3 2 2 2 2 3 3 3 3 3 3 3 4 4 4 4 4 5 4 4 3 3 4 3 3 3 3 3 3 3 3 3 3 3 3 3 3 3 3 3 3 2 2 2
4 4 3 3 3 3 3 2 2 2 2 2 2 2 1 1 2 2 2 2 2 2 1 1 2 2 3 2 2 2 2 1 1 2 3 6 8 8 7 6 5 5 4 4 4 3 3 3 3 3 2 2 3 3 4 4 4 4 5 5 5 4 3 4 4 3 3 3 3 3 3 3 3 3 3 3 3 3 3 3 3 2 2 2 2 2
4 4 3 3 3 3 3 3 2 2 2 2 2 2 1 2 2 2 2 2 2 1 1 1 2 2 2 1 1 1 2 2 2 1 1 2 3 4 5 5 5 5 5 5 5 5 5 4 4 3 2 2 2 3 4 4 4 4 4 5 5 4 3 4 3 3 3 3 3 3 3 3 3 3 3 4 4 3 3 3 2 2 2 2 2 2
4 4 3 3 3 3 3 2 2 2 2 2 2 2 2 2 2 2 2 2 2 1 1 1 2 2 2 1 1 1 1 1 1 2 2 2 2 2 2 3 4 5 4 5 5 6 6 6 5 4 3 2 2 3 3 3 3 3 4 4 4 3 3 3 3 3 3 3 3 3 2 3 3 3 3 3 3 3 3 3 2 2 2 1 1 2
5 4 4 3 3 3 3 2 2 2 3 2 2 2 2 2 2 3 2 2 1 2 2 2 2 2 1 1 1 1 1 1 1 1 2 2 2 2 2 2 3 3 4 5 5 6 6 6 6 6 5 3 3 3 3 3 3 3 3 3 3 3 3 3 3 3 3 3 3 2 2 2 2 2 3 3 3 3 3 3 3 2 2 1 1 1
4 4 4 3 3 3 2 2 2 3 3 3 3 2 2 2 3 3 2 1 1 2 2 2 2 2 1 1 1 1 1 1 1 1 1 2 2 2 2 2 2 2 3 3 3 3 4 4 4 5 6 5 4 3 3 3 3 3 3 2 2 2 2 3 3 3 3 3 3 3 2 1 1 1 1 2 3 3 3 3 3 3 2 2 2 2
4 3 3 3 3 3 3 3 3 3 3 3 3 2 2 2 2 2 2 1 1 2 2 2 2 2 2 2 1 1 1 1 1 1 1 2 2 2 2 2 2 2 3 3 3 3 3 3 2 2 5 6 6 4 3 3 3 3 2 2 2 2 2 2 2 3 3 3 3 3 2 2 1 1 1 2 2 3 3 3 3 3 3 3 3 3
4 3 3 3 3 3 3 3 3 4 4 3 3 2 2 2 2 1 1 1 1 1 1 1 2 2 2 2 1 1 1 0 1 1 2 2 2 2 2 2 2 2 3 3 3 3 3 3 3 2 1 5 6 5 2 2 2 3 2 2 1 1 1 2 2 3 3 3 3 2 2 2 2 1 1 2 2 2 3 3 3 3 4 4 4 4
Wind_Direction
54 32 14 48 65 74 42 56 88 106 113 109 100 88 79 73 66 56 53 71 97 130 180 220 233 245 259 276 283 286 288 288 289 291 294 299 302 305 305 304 303 302 302 303 304 305 306 308 309 310 312 313 313 314 315 316 317 318 318 319 319 318 318 318 318 319 319 319 319 318 318 317 317 316 316 316 316 317 317 316 315 313 311 310 309 309
55 37 19 47 67 81 65 49 75 99 115 119 121 119 111 103 97 87 64 120 190 203 215 227 233 240 250 278 290 294 295 295 296 297 298 301 302 304 304 303 302 301 302 303 304 305 307 309 311 312 313 314 314 315 315 316 318 319 320 320 320 320 320 321 321 321 320 320 319 319 318 318 317 316 316 317 317 317 316 315 313 312 311 310 310 311
113 83 58 58 75 90 108 72 70 79 94 107 113 116 116 115 117 127 159 198 209 210 211 215 219 227 241 278 295 298 298 297 297 297 298 300 301 302 302 301 301 301 301 303 304 306 308 311 312 314 315 315 315 315 316 318 319 321 322 322 323 323 323 323 323 322 321 320 319 318 318 317 317 316 317 317 317 317 316 314 313 312 312 312 313 313
130 125 131 99 86 93 106 95 80 75 78 86 89 93 97 104 115 137 170 184 196 211 222 206 190 188 242 303 303 302 299 298 296 296 296 298 299 300 300 300 301 301 302 303 306 308 311 313 315 316 316 316 316 317 318 320 322 323 325 326 326 327 327 326 325 323 321 320 319 318 318 317 316 317 317 318 318 317 316 315 314 314 314 314 314 314
128 126 135 121 104 88 78 80 81 82 80 81 81 84 88 97 110 136 181 123 353 294 293 313 22 47 321 306 299 298 296 295 295 294 294 296 298 299 300 300 301 302 304 306 309 312 314 315 316 317 318 318 318 319 321 323 324 326 328 329 329 329 329 327 325 323 322 320 320 319 318 317 317 318 319 319 319 318 317 316 315 315 315 316 316 316
112 106 117 113 104 91 75 74 78 81 76 77 81 89 101 121 144 169 205 218 256 275 289 312 327 311 292 281 287 290 294 295 296 296 296 298 299 300 302 304 305 307 308 310 312 314 316 316 317 318 319 320 321 322 323 325 327 329 331 331 331 330 329 327 325 324 323 321 321 320 319 319 320 321 321 321 320 319 318 317 317 317 317 317 317 317
91 65 69 78 79 77 72 72 77 83 87 89 97 111 138 165 178 187 196 196 201 221 282 314 314 301 285 277 282 288 296 302 304 305 303 304 306 307 308 309 311 312 312 313 314 315 316 317 318 319 320 321 322 323 325 327 329 331 332 332 332 331 329 327 326 325 324 323 322 322 322 322 323 323 323 322 321 320 319 319 319 319 318 318 318 319
114 97 81 90 88 80 70 67 73 84 103 117 131 145 171 180 185 189 191 188 187 190 220 307 310 303 290 281 285 293 306 314 321 321 314 314 314 315 313 313 314 314 314 314 314 315 316 317 319 320 322 322 323 325 326 328 330 332 333 333 332 331 329 328 328 327 326 325 325 325 325 325 326 326 325 324 323 322 322 322 322 322 321 320 320 320
130 132 127 124 121 117 104 92 87 92 107 116 125 131 137 136 130 112 82 68 218 195 176 231 282 293 293 290 297 311 328 354 3 348 331 328 323 319 316 317 317 316 316 316 316 317 318 320 321 322 323 324 324 325 327 329 331 333 333 333 332 331 331 330 330 330 329 328 328 328 328 329 328 328 327 326 325 325 325 325 325 324 323 322 322 321
121 125 125 117 115 119 121 119 116 109 100 77 74 79 87 85 75 60 36 360 337 327 139 186 238 272 291 302 314 335 352 6 358 347 340 333 328 324 322 323 323 322 321 321 321 322 323 324 325 325 326 326 326 327 328 331 333 334 334 334 333 333 333 333 333 333 332 332 331 331 331 331 330 329 328 327 327 327 327 326 326 325 324 323 323 322
104 105 105 94 79 76 91 101 103 97 82 62 51 46 58 86 96 92 65 354 337 338 348 287 221 239 278 300 313 348 35 21 4 351 342 332 326 324 324 326 327 327 326 326 327 327 327 327 327 328 328 328 328 328 329 331 333 335 335 335 335 335 336 336 336 336 335 334 333 333 332 332 331 330 329 328 328 327 327 327 326 325 324 324 324 324
111 105 101 103 94 83 80 89 90 87 81 78 72 65 46 104 117 119 121 134 316 321 324 310 279 244 236 255 267 334 59 41 16 350 337 326 322 321 323 326 328 328 328 329 328 328 327 326 327 328 329 328 328 328 329 331 333 334 335 336 337 338 339 340 339 339 337 336 335 334 333 332 331 330 329 329 328 328 328 327 326 326 326 326 326 326
109 108 106 109 111 111 107 110 106 99 103 127 141 149 161 154 126 118 125 158 207 241 266 304 301 284 253 231 206 115 74 48 12 337 321 310 309 312 318 320 321 321 323 326 326 324 323 325 327 328 327 327 326 326 327 330 332 334 335 337 339 341 342 342 341 340 338 336 335 334 333 333 332 331 330 330 329 329 329 329 328 328 328 329 328 328
115 112 111 114 121 125 128 132 136 141 157 163 157 151 149 141 125 117 126 171 207 220 120 327 301 293 291 330 67 83 76 47 3 327 314 300 294 297 307 309 308 306 306 315 314 312 315 325 327 326 325 325 324 325 326 328 330 333 335 338 341 343 344 343 342 340 338 337 336 335 334 334 333 332 331 331 331 332 332 332 331 331 331 331 330 328
137 134 131 134 139 143 147 149 147 145 140 133 129 126 123 123 124 130 136 167 204 6 33 348 304 297 321 4 29 52 64 38 360 331 317 302 290 283 292 302 303 301 300 304 300 301 309 321 323 320 319 322 323 324 326 328 331 333 335 339 342 344 344 344 342 341 339 338 337 336 336 335 334 334 334 334 335 335 335 335 334 333 333 332 330 327
146 144 143 142 142 146 152 148 140 131 122 120 121 123 125 135 139 139 135 137 101 43 34 360 336 328 344 4 17 31 47 24 358 334 322 308 296 287 292 307 308 307 303 300 292 293 304 314 317 315 312 322 326 328 329 330 332 334 337 340 342 344 344 344 343 342 341 340 339 338 337 337 336 336 336 337 337 338 337 336 335 334 333 331 329 325
144 145 141 135 135 136 137 126 122 123 130 132 132 134 140 147 143 135 126 120 101 81 65 43 18 360 337 340 357 23 42 28 3 335 321 309 300 296 301 311 309 306 302 298 290 289 299 309 314 317 318 328 331 332 331 332 334 336 340 341 343 344 345 345 345 344 343 342 340 339 338 338 338 338 339 340 339 339 338 336 335 333 332 330 327 325
141 142 135 132 132 132 128 120 122 128 134 137 140 141 137 135 128 122 118 116 115 112 106 94 91 68 291 291 296 360 48 36 6 332 318 306 301 299 309 316 311 305 307 302 297 295 302 310 324 332 333 334 334 334 333 334 337 341 343 343 344 345 346 347 348 347 345 343 342 340 340 339 340 340 341 341 340 339 338 336 334 333 331 329 327 327
137 134 131 134 134 134 131 134 141 147 149 152 151 147 138 127 118 114 118 123 125 125 121 119 142 206 236 250 259 306 48 42 14 330 308 300 299 303 317 336 337 330 328 315 307 303 310 316 333 338 339 336 335 334 336 339 343 346 346 345 346 347 350 351 351 349 347 344 343 342 341 341 342 342 342 342 340 339 337 336 334 332 331 330 330 333
134 132 136 137 135 133 136 147 154 157 159 158 153 148 145 140 133 129 129 125 120 116 118 131 174 222 237 252 266 314 39 43 28 340 291 285 289 297 318 355 360 351 338 320 310 307 321 328 334 335 335 334 335 336 340 346 350 351 349 348 349 352 354 355 354 351 348 346 344 343 343 343 343 343 343 342 341 340 338 336 335 334 334 336 340 344
131 134 141 140 139 140 147 156 156 153 151 144 138 137 143 142 138 131 123 111 102 97 100 130 196 228 247 269 282 305 28 48 39 345 294 292 293 299 318 8 10 358 339 320 311 312 329 333 332 330 329 332 335 340 347 354 356 355 352 353 354 357 358 357 355 352 349 346 345 345 345 345 345 345 344 343 342 341 339 338 337 338 341 346 351 354
130 133 134 134 136 139 142 140 135 132 128 127 132 139 146 139 132 123 110 102 99 102 112 176 227 245 260 272 276 280 350 105 118 144 305 306 302 304 327 7 9 356 335 318 314 319 331 332 326 322 323 330 337 346 356 360 359 358 356 357 358 359 360 358 356 353 350 348 347 346 346 346 347 346 346 345 344 342 341 341 342 345 350 355 357 357
121 125 124 120 120 123 125 122 116 107 99 102 109 117 121 119 119 119 114 113 118 131 159 216 249 263 265 264 266 267 238 140 133 129 109 294 295 305 338 3 3 351 331 321 320 326 332 328 321 319 322 338 348 357 5 4 2 0 359 359 360 360 360 358 356 353 351 349 348 348 348 348 348 348 347 346 346 345 344 345 348 353 358 359 359 357
112 114 114 111 111 111 112 111 104 94 85 85 87 87 86 94 101 107 113 118 127 139 165 236 277 282 270 254 252 265 56 92 102 104 99 295 298 316 343 358 356 346 330 323 325 330 331 325 322 323 330 354 3 8 8 6 3 1 1 0 360 360 359 358 356 354 352 350 349 349 349 350 350 349 349 348 348 347 347 349 354 358 3 2 360 356
107 109 109 110 112 113 112 110 107 102 98 95 94 93 92 94 96 98 100 108 121 134 149 353 309 300 288 276 91 79 49 37 56 78 80 10 321 324 334 351 354 346 330 324 327 331 329 325 328 341 357 9 11 11 8 5 3 2 1 1 360 359 358 357 356 355 353 352 352 352 352 352 352 352 351 350 350 350 350 354 358 2 5 3 1 357
109 112 114 115 116 116 115 114 112 110 108 106 104 102 101 102 102 102 102 110 121 127 110 64 337 304 300 332 40 80 73 35 42 58 76 56 342 322 320 346 357 351 332 326 327 328 326 327 340 360 17 18 12 8 5 3 2 2 1 1 360 359 358 357 357 356 355 355 354 354 355 355 354 353 353 353 352 352 353 358 2 6 8 6 2 358
112 113 114 114 114 114 113 112 111 110 109 109 109 111 114 115 113 110 110 119 121 113 100 88 12 302 312 327 339 72 96 63 45 45 80 86 44 327 315 341 355 354 339 329 324 323 323 335 360 16 20 19 10 3 1 360 0 1 1 0 359 358 357 357 357 357 357 357 357 357 357 356 356 355 355 354 354 354 355 1 6 10 11 8 3 356
108 108 108 108 108 107 106 106 106 106 105 104 105 107 111 114 115 116 126 130 123 113 115 131 158 260 311 314 322 31 75 62 34 11 76 84 65 342 315 341 357 359 346 329 318 317 322 346 14 21 16 10 3 356 353 355 357 360 1 360 358 357 357 358 358 358 358 358 358 358 358 358 357 357 357 356 356 356 357 4 10 13 12 8 1 351
97 96 96 95 95 94 94 95 97 99 98 97 96 96 94 96 109 124 141 135 126 120 133 150 164 181 289 299 327 40 65 44 4 344 53 68 50 343 325 349 1 2 351 331 322 320 328 351 18 24 15 2 355 347 342 347 353 358 1 358 356 356 356 358 359 359 358 358 359 359 359 358 358 358 358 358 357 357 359 6 12 15 13 5 356 347
84 82 80 78 78 78 77 78 84 89 92 93 92 89 80 76 86 105 118 113 114 122 138 143 136 96 34 339 11 44 61 22 353 358 53 61 41 349 347 360 3 1 358 348 340 333 327 335 1 17 13 357 348 339 331 339 348 356 358 354 351 352 356 359 360 359 359 359 359 359 359 359 358 359 359 359 358 359 0 6 13 20 16 1 353 349
83 79 73 69 68 67 67 67 72 79 86 88 89 88 83 75 72 73 75 80 90 104 119 115 99 81 72 67 66 66 65 17 7 20 57 65 50 6 8 8 360 354 358 6 1 345 324 324 339 355 2 351 341 333 330 338 348 353 349 343 341 345 353 358 359 359 358 358 358 358 358 358 359 359 359 359 359 359 1 5 12 22 23 3 355 353
90 86 82 78 76 74 75 76 76 77 80 83 86 89 90 87 81 74 64 64 68 77 86 86 84 79 81 93 100 99 91 24 17 26 49 62 55 26 22 15 358 347 346 7 15 360 330 321 326 335 345 340 332 328 329 342 348 349 341 336 330 338 351 356 357 357 356 356 356 356 356 357 358 359 359 359 360 1 2 4 9 17 23 10 358 352
93 90 89 89 89 91 93 94 93 91 89 86 84 83 83 85 85 82 70 63 61 65 75 79 80 79 77 83 88 93 87 38 25 30 43 56 54 30 18 12 356 343 338 350 356 353 330 317 318 323 330 327 323 322 329 340 344 342 335 332 325 329 344 350 351 351 350 351 349 349 351 355 357 359 359 360 1 2 3 4 7 10 14 12 3 352
97 97 98 101 104 107 108 107 105 102 99 93 88 83 76 72 72 71 67 64 64 67 77 85 90 92 88 81 73 65 63 39 33 35 46 57 59 37 12 3 351 343 341 345 346 342 326 320 320 322 322 321 319 318 326 337 337 334 326 323 320 323 331 338 339 340 341 340 337 336 342 350 357 360 359 360 2 3 5 6 7 8 9 8 7 360
102 103 107 112 118 121 122 120 115 109 100 92 86 81 76 71 66 64 64 65 66 70 78 88 99 109 114 112 105 91 49 15 27 35 48 59 64 46 9 350 342 340 344 344 344 343 334 327 329 329 328 325 322 319 322 327 328 325 318 317 317 317 320 322 327 330 332 333 330 328 335 348 357 360 359 1 3 5 5 6 7 8 8 8 7 6
106 108 113 120 126 130 130 125 119 110 101 93 87 83 81 77 73 71 70 71 70 71 74 83 99 114 127 130 137 154 201 237 19 33 47 64 76 70 11 331 322 325 334 339 341 341 335 329 330 334 337 334 328 324 323 324 325 325 322 320 318 316 315 316 319 324 330 333 334 337 345 356 1 1 359 2 4 5 5 6 8 9 9 8 7 7
109 112 118 125 130 130 127 118 111 105 99 94 88 85 82 80 77 78 81 83 81 76 71 73 81 103 129 139 150 164 187 183 93 55 58 82 104 116 101 297 302 307 321 327 332 333 332 332 335 338 343 340 332 326 323 329 333 334 329 324 321 319 316 315 318 322 331 340 343 347 356 1 2 360 357 1 2 3 4 5 7 9 11 9 8 7
114 117 124 131 129 123 115 107 103 100 96 93 88 84 83 85 88 94 100 104 106 104 99 91 84 95 168 168 172 176 179 165 154 150 149 147 141 140 151 258 290 298 301 300 312 324 332 336 339 341 340 332 321 317 319 327 333 333 326 320 314 311 312 312 317 326 338 345 348 351 357 359 359 357 354 356 357 357 358 358 2 7 12 9 8 7
121 125 133 135 127 113 104 103 102 100 96 93 90 88 89 99 112 126 132 133 136 141 151 159 170 191 211 217 216 213 209 196 190 187 180 168 157 150 160 199 253 274 278 275 284 311 326 325 327 328 325 321 317 314 314 321 326 326 322 320 318 316 313 313 318 328 343 349 349 350 353 355 356 354 350 349 348 349 351 346 354 3 12 9 5 4
127 129 132 129 119 107 103 105 105 103 101 96 93 91 97 111 122 129 139 144 151 159 167 172 177 192 207 215 222 224 221 211 202 193 180 172 166 164 169 190 218 245 264 273 269 249 242 276 286 293 298 304 308 311 313 318 322 325 329 332 330 323 317 315 319 330 347 351 348 347 350 354 355 354 350 347 347 346 346 340 347 360 13 14 9 1
130 129 127 119 111 104 100 103 105 107 107 105 103 100 103 94 83 72 64 73 93 119 131 122 102 359 308 265 239 227 220 215 207 198 182 178 174 175 181 197 211 227 246 268 272 261 242 252 265 275 281 286 295 300 304 307 315 321 328 329 321 310 308 313 322 336 348 347 346 348 354 357 357 353 346 344 342 337 335 333 343 360 19 25 19 9
130 128 126 120 114 110 110 113 116 119 120 120 121 120 115 97 80 65 53 46 43 46 62 68 55 25 352 328 297 259 230 220 213 205 193 184 180 181 188 202 211 221 227 254 265 265 256 254 258 264 269 276 288 296 301 301 308 315 321 313 307 305 306 316 325 336 348 344 342 347 358 359 354 347 340 338 333 328 331 336 352 8 21 22 16 6
122 120 120 121 123 126 128 126 127 131 135 132 126 118 114 107 100 90 75 61 46 39 40 57 62 52 21 360 347 328 272 240 224 212 200 188 182 184 191 203 210 214 208 230 256 263 260 258 258 258 259 263 274 286 295 300 305 308 307 303 308 316 325 324 326 332 341 342 344 349 357 355 348 339 336 334 331 329 330 340 355 7 21 24 17 3
114 115 119 124 128 129 129 131 135 139 140 129 118 107 101 101 99 94 84 73 58 42 30 41 54 57 45 30 14 357 317 250 226 217 209 200 193 191 195 201 206 208 201 208 229 253 265 263 258 253 251 252 262 275 286 295 301 304 301 304 311 318 320 317 321 328 336 340 344 348 351 348 344 340 337 335 333 332 331 332 341 355 12 19 19 8
116 122 128 133 135 134 134 135 138 136 129 118 109 102 96 88 87 87 85 76 59 41 24 48 57 55 43 33 20 9 3 351 297 234 224 214 206 200 195 197 199 203 203 210 218 230 248 257 257 253 246 246 253 265 277 286 293 298 302 309 313 315 309 314 321 329 334 336 337 339 342 346 348 347 344 339 336 333 330 332 338 347 357 5 9 5
122 127 131 132 131 132 135 138 136 129 116 107 102 99 96 84 80 80 83 81 68 43 11 66 77 76 66 52 32 23 16 5 355 335 301 263 232 211 198 195 197 200 205 213 218 223 228 235 240 243 248 259 263 264 266 275 285 294 301 310 314 315 315 319 324 328 330 332 334 336 338 352 1 1 350 341 336 331 327 331 339 352 360 4 4 360
129 130 130 129 127 128 132 134 128 119 108 103 101 99 95 85 78 75 73 76 72 59 24 55 74 85 91 88 70 53 38 8 343 327 319 315 305 286 249 222 215 214 215 220 224 225 226 225 223 219 221 244 265 272 271 272 277 285 293 301 308 314 318 320 322 322 324 330 332 336 343 2 7 360 346 339 335 332 331 335 341 350 360 4 2 352
132 131 132 132 130 128 130 126 117 108 104 103 100 95 91 92 89 83 73 70 69 64 49 56 65 77 89 87 78 67 58 24 320 300 299 298 295 291 287 276 262 253 249 247 243 238 232 225 215 205 195 200 222 251 267 271 273 276 284 295 303 310 313 313 315 318 323 331 333 339 351 4 360 349 340 341 341 341 342 343 343 345 348 351 344 332
126 128 131 129 127 123 120 112 103 99 100 100 98 91 81 83 88 90 93 88 85 81 75 75 77 80 83 78 71 60 43 14 307 285 284 284 287 291 295 294 292 290 286 280 275 269 262 247 223 203 190 187 197 221 252 265 272 277 283 290 296 300 305 310 316 322 330 334 335 338 346 343 334 335 360 357 351 347 347 348 347 344 344 345 335 319
114 116 120 118 115 113 109 102 97 96 97 97 95 90 76 68 73 84 101 101 97 96 102 105 102 96 87 82 70 54 25 346 311 298 292 285 287 293 297 299 304 310 312 312 316 322 328 329 305 223 197 191 193 204 236 262 276 281 282 281 283 291 302 309 317 325 334 333 334 334 336 330 332 8 45 21 1 349 345 347 347 346 345 346 342 334
109 106 105 104 104 104 101 99 98 98 98 98 97 91 81 72 70 72 75 76 81 88 101 109 106 97 86 80 71 49 10 323 306 302 294 284 286 290 294 301 312 323 328 332 339 346 356 4 5 357 217 198 198 202 215 246 269 283 288 286 287 294 306 309 315 322 330 331 331 330 332 334 343 4 34 31 12 355 346 346 344 343 342 344 344 342